User: anonymous   Login
Location: ???????
(55.7027°N, 37.3832°E)
Time: 20:27:11
(UTC+00:00)
Language:

Cosmos 2098 Rocket - Orbit

View from above orbital plane
View from above orbital plane
View from above satellite
View from above satellite

Ground track
Ground track

The orbit is defined by the following mean orbital elements,

1 20775U          26162.49537720 +.00000000 +00000-0 +54013-3 0 00004
2 20775  82.9014 166.7865 0352191  57.6230 305.8559 14.92097617    01
Epoch (UTC): 11 June 2026 11:53:20
Eccentricity: 0.0352191
inclination: 82.9014°
perigee height: 346 km
apogee height: 837 km
right ascension of ascending node: 166.7865°
argument of perigee: 57.6230°
revolutions per day: 14.92097617
mean anomaly at epoch: 305.8559°

The dashed part of the orbit path shows where the satellite is in the earth's shadow,  

DLR